Location: Oshawa
(43.9000°N, 78.8670°W)
Time: 09:10:51
(UTC-05:00)

Cosmos 839 Rocket - Visible Passes

Search period start: 22 January 2017 00:00
Search period end: 01 February 2017 00:00
Orbit: 967 x 2086 km, 65.9° (Epoch: 21 January)

Date Brightness Start Highest point End Pass type
(mag) Time Alt. Az. Time Alt. Az. Time Alt. Az.
22 Jan 5.7 18:50:38 10° NNW 18:54:15 15° NNE 18:55:13 14° NNE visible
22 Jan 6.0 20:49:57 10° NNW 20:51:50 20° NNW 20:51:50 20° NNW visible
23 Jan 5.9 18:08:49 10° N 18:11:27 12° NNE 18:13:59 10° NE visible
23 Jan 5.5 20:08:09 10° NNW 20:11:17 25° N 20:11:17 25° N visible
24 Jan 5.2 19:26:24 10° NNW 19:30:47 25° NNE 19:30:47 25° NNE visible
24 Jan 6.3 21:26:04 10° NW 21:27:24 17° NW 21:27:24 17° NW visible
25 Jan 5.4 18:44:41 10° NNW 18:49:09 19° NNE 18:50:19 18° NE visible
25 Jan 5.5 20:44:06 10° NNW 20:46:57 28° NNW 20:46:57 28° NNW visible
26 Jan 5.7 18:02:57 10° NNW 18:06:30 15° NNE 18:09:52 10° NE visible
26 Jan 4.8 20:02:13 10° NNW 20:06:31 39° N 20:06:31 39° N visible
26 Jan 6.7 22:02:56 10° NW 22:03:10 11° NW 22:03:10 11° NW visible
27 Jan 4.6 19:20:26 10° NNW 19:26:10 35° NE 19:26:10 35° NE visible
27 Jan 6.0 21:20:29 10° NW 21:22:49 22° NW 21:22:49 22° NW visible
28 Jan 5.1 18:38:42 10° NNW 18:43:53 25° NE 18:45:54 21° ENE visible
28 Jan 4.9 20:38:20 10° NW 20:42:32 44° NW 20:42:32 44° NW visible
29 Jan 5.4 17:56:59 10° NNW 18:01:23 19° NNE 18:05:36 10° ENE visible
29 Jan 3.9 19:56:22 10° NNW 20:02:22 75° NNE 20:02:22 75° NNE visible
29 Jan 6.6 21:58:12 10° WNW 21:59:01 12° WNW 21:59:01 12° WNW visible
30 Jan 4.1 19:14:30 10° NNW 19:20:38 51° NE 19:22:19 40° E visible
30 Jan 5.8 21:15:09 10° NW 21:18:59 25° W 21:18:59 25° W visible
31 Jan 4.6 18:32:44 10° NNW 18:38:28 34° NE 18:42:25 18° E visible
31 Jan 4.8 20:32:44 10° NW 20:38:33 44° WSW 20:39:06 43° SW visible
